This is the latest recevied weather packets stored in our database for station/object VK5GR-12. If no packets are shown the sender has not sent any weather packets the latest 10 day(s).
| Time | Temp. | Humidity | Pressure | Rain* | Wind** | Luminosity | Snow |
|---|---|---|---|---|---|---|---|
| 1788664496 | 13.89° C | 85% | 1023.9 hPa | 0 mm | - | 202 W/m² | - |
| 1788663591 | 13.89° C | 88% | 1023.9 hPa | 0 mm | - | 205 W/m² | - |
| 1788662690 | 13.89° C | 87% | 1024.2 hPa | 0 mm | - | 98 W/m² | - |
| 1788661787 | 13.89° C | 88% | 1024.1 hPa | 0 mm | - | 81 W/m² | - |
| 1788660883 | 13.33° C | 90% | 1024.4 hPa | 0 mm | - | 175 W/m² | - |
| 1788659978 | 12.78° C | 88% | 1024.4 hPa | 0 mm | - | 117 W/m² | - |
| 1788659078 | 14.44° C | 85% | 1024.3 hPa | 0 mm | - | 92 W/m² | - |
| 1788658176 | 14.44° C | 85% | 1024.3 hPa | 0 mm | - | 382 W/m² | - |
| 1788657272 | 13.89° C | 87% | 1024.4 hPa | 0 mm | - | 329 W/m² | - |
| 1788656370 | 13.33° C | 89% | 1024.5 hPa | 0 mm | - | 263 W/m² | - |
| 1788655468 | 13.33° C | 90% | 1024.4 hPa | 0 mm | - | 157 W/m² | - |
| 1788654566 | 13.33° C | 91% | 1024.3 hPa | 0 mm | - | 128 W/m² | - |
| 1788653661 | 12.78° C | 95% | 1024.3 hPa | 0 mm | - | 576 W/m² | - |
| 1788652758 | 12.78° C | 96% | 1024.2 hPa | 0 mm | - | 149 W/m² | - |
| 1788651854 | 12.78° C | 96% | 1024.2 hPa | 0 mm | - | 191 W/m² | - |
| 1788650955 | 12.78° C | 97% | 1024.1 hPa | 0 mm | - | 371 W/m² | - |
| 1788650054 | 11.67° C | 98% | 1023.8 hPa | 0 mm | - | 367 W/m² | - |
| 1788649153 | 11.67° C | 98% | 1023.9 hPa | 0 mm | - | 170 W/m² | - |
| 1788648251 | 11.67° C | 98% | 1023.5 hPa | 0 mm | - | 84 W/m² | - |
| 1788647349 | 11.67° C | 98% | 1023.4 hPa | 0 mm | - | 126 W/m² | - |
| 1788646446 | 11.67° C | 98% | 1023.1 hPa | 0 mm | - | 126 W/m² | - |
| 1788645543 | 11.11° C | 98% | 1022.8 hPa | 0 mm | - | 54 W/m² | - |
| 1788644642 | 11.11° C | 98% | 1022.6 hPa | 0 mm | - | 42 W/m² | - |
| 1788643739 | 11.11° C | 98% | 1022.7 hPa | 0 mm | - | 21 W/m² | - |
| 1788642835 | 10.56° C | 98% | 1022.1 hPa | 0 mm | - | 11 W/m² | - |
* Rain latest hour (hover to see other rain measurements)
** Current wind speed in m/s (hover to see current wind gust speed)